{"data":{"norad_id":59462,"epoch":"2026-09-21T17:40:31.903104Z","epoch_age_seconds":58264,"freshness":"FRESH","line1":"1 59462U 24068H   26264.73648036  .00000555  00000+0  29682-4 0  9998","line2":"2 59462  43.0039   7.5141 0000943 277.2346  82.8399 15.27577804138504","mean_motion":15.27577804,"eccentricity":9.43e-5,"inclination_deg":43.0039,"raan_deg":7.5141,"arg_perigee_deg":277.2346,"mean_anomaly_deg":82.8399,"bstar":2.9682e-5,"rev_number":13850,"period_min":94.2668842287,"perigee_km":482.4086611926,"apogee_km":483.70268213048,"semimajor_km":6861.1926716615,"source":"CELESTRAK","updated_at":"2026-09-22T09:00:48.947664Z"}}